Location: ?????? ??????
(44.3742°N, 135.2221°E)
Time: 03:34:24
(UTC+00:00)

NOSS 2-2 (E) - Pass Details

Date: 19 May 2025
Orbit: 390 x 1730 km, 63.3° (Epoch: 14 June)

Event Time Altitude Azimuth Distance (km) Brightness Sun altitude
Rises 18:12:12 0° 314° (NW) 2,717 6.8 -11.6°
Reaches altitude 10° 18:14:13 10° 306° (NW) 1,956 6.0 -11.3°
Maximum altitude 18:18:19 40° 237° (WSW) 1,088 4.3 -10.8°
Drops below altitude 10° 18:23:56 10° 170° (S) 2,683 6.5 -10.0°
Sets 18:27:08 0° 164° (SSE) 3,874 7.4 -9.6°
